Weather History for Reidsville, NC

Change the Weather History Date:

Saturday, August 23, 2014

  Actual Average (KGSO) Record (KGSO)
Temperature  
Mean Temperature 78 °F 77 °F  
Max Temperature 84 °F 86 °F 99 °F (1983)
Min Temperature 71 °F 68 °F 52 °F (1925)
Degree Days  
Heating Degree Days 0 0  
Month to date heating degree days 0  
Since 1 June heating degree days 6  
Since 1 July heating degree days 0  
Cooling Degree Days 12 12  
Month to date cooling degree days 291  
Year to date cooling degree days 1176  
Since 1 June cooling degree days 1017  
Growing Degree Days 28 (Base 50)    
Moisture  
Dew Point 74 °F    
Average Humidity 88    
Maximum Humidity 100    
Minimum Humidity 67    
Precipitation  
Precipitation 0.11 in 0.13 in 1.10 in (1949)
Month to date precipitation 2.84  
Year to date precipitation 27.75  
Sea Level Pressure  
Sea Level Pressure 29.97 in    
Wind  
Wind Speed 1 mph (NE)    
Max Wind Speed 6 mph    
Max Gust Speed -    
Visibility 6 miles    
Events Fog , Rain    
T = Trace of Precipitation, MM = Missing Value Source: NWS Daily Summary

Daily Weather History Graph

Daily Weather History Graph

Search for Another Location

Airport:

Trip Planner

Search our weather history database for the weather conditions in past years. The results will help you decide how hot, cold, wet, or windy it might be!

Date:

Astronomy

Aug. 23, 2014 Rise Set
Actual Time 6:43 AM EDT 7:59 PM EDT
Civil Twilight 6:16 AM EDT 8:26 PM EDT
Nautical Twilight 5:44 AM EDT 8:58 PM EDT
Astronomical Twilight 5:11 AM EDT 9:31 PM EDT
Moon 4:59 AM EDT (8/23) 6:43 PM EDT (8/23)
Length of Visible Light 14h 09m
Length of Day
13h 16m
Waning Crescent, 3% of the Moon is Illuminated
Aug 23
Waning Crescent
Aug 25
New
Sep 2
First Quarter
Sep 8
Full
Sep 15
Last Quarter

Hourly Weather History & Observations

Time (EDT) Temp. Heat Index Dew Point Humidity Pressure Visibility Wind Dir Wind Speed Gust Speed Precip Events Conditions
12:15 AM 75.2 °F - 74.8 °F 99% 29.98 in 4.0 mi Calm Calm - N/A   Scattered Clouds
12:35 AM 75.4 °F - 75.4 °F 100% 29.98 in 3.0 mi Calm Calm - N/A   Clear
1:15 AM 75.7 °F - 75.7 °F 100% 29.98 in 4.0 mi Calm Calm - N/A   Mostly Cloudy
1:35 AM 75.9 °F - 75.9 °F 100% 29.98 in 5.0 mi Calm Calm - N/A   Overcast
1:55 AM 76.1 °F - 76.1 °F 100% 29.98 in 5.0 mi Calm Calm - N/A   Overcast
2:15 AM 75.9 °F - 75.9 °F 100% 29.98 in 4.0 mi Calm Calm - N/A Rain Light Rain
2:35 AM 76.1 °F - 76.1 °F 100% 29.98 in 3.0 mi Calm Calm - 0.01 in Rain Light Rain
2:55 AM 76.1 °F - 76.1 °F 100% 29.95 in 3.0 mi Calm Calm - 0.05 in Rain Rain
3:15 AM 76.1 °F - 76.1 °F 100% 29.96 in 4.0 mi Calm Calm - N/A   Mostly Cloudy
3:35 AM 75.4 °F - 75.4 °F 100% 29.96 in 2.0 mi Calm Calm - N/A   Scattered Clouds
3:55 AM 75.2 °F - 75.2 °F 100% 29.96 in 2.0 mi Calm Calm - 0.01 in   Clear
4:15 AM 74.5 °F - 74.5 °F 100% 29.95 in 1.8 mi Calm Calm - N/A   Mist
4:35 AM 74.1 °F - 74.1 °F 100% 29.95 in 1.8 mi Calm Calm - N/A   Mist
5:15 AM 73.8 °F - 73.8 °F 100% 29.95 in 2.5 mi Calm Calm - N/A   Clear
5:35 AM 73.8 °F - 73.8 °F 100% 29.95 in 3.0 mi Calm Calm - N/A   Clear
5:55 AM 74.3 °F - 74.3 °F 100% 29.95 in 5.0 mi Calm Calm - N/A   Clear
6:15 AM 72.9 °F - 72.9 °F 100% 29.96 in 2.0 mi Calm Calm - N/A   Clear
6:35 AM 71.8 °F - 71.8 °F 100% 29.96 in 1.0 mi Calm Calm - N/A   Mist
7:15 AM 71.6 °F - 71.6 °F 100% 29.97 in 0.5 mi Calm Calm - N/A Fog Fog
7:35 AM 72.5 °F - 72.5 °F 100% 29.98 in 0.8 mi Calm Calm - N/A   Mostly Cloudy
7:55 AM 73.9 °F - 73.9 °F 100% 29.98 in 3.0 mi Calm Calm - N/A   Clear
8:15 AM 74.1 °F - 74.1 °F 100% 29.98 in 4.0 mi Calm Calm - N/A   Scattered Clouds
8:35 AM 74.8 °F - 74.8 °F 100% 29.98 in 5.0 mi Calm Calm - N/A   Mostly Cloudy
8:55 AM 75.7 °F - 74.3 °F 95% 29.99 in 5.0 mi Calm Calm - N/A   Mostly Cloudy
9:15 AM 77.0 °F - 74.7 °F 92% 29.99 in 4.0 mi Calm Calm - N/A   Mostly Cloudy
9:35 AM 78.4 °F - 74.5 °F 88% 29.99 in 5.0 mi NNE 4.6 mph - N/A   Scattered Clouds
9:55 AM 79.3 °F - 74.1 °F 84% 29.99 in 7.0 mi Calm Calm - N/A   Mostly Cloudy
10:15 AM 79.0 °F - 73.0 °F 82% 29.99 in 4.0 mi North 3.5 mph - N/A   Haze
10:35 AM 79.2 °F - 73.0 °F 81% 30.00 in 5.0 mi North 4.6 mph - N/A   Haze
10:55 AM 79.7 °F - 73.0 °F 80% 30.00 in 4.0 mi NNW 4.6 mph - N/A   Haze
11:15 AM 80.2 °F 84.5 °F 72.9 °F 78% 30.00 in 5.0 mi North 3.5 mph - N/A   Haze
11:35 AM 80.6 °F 85.2 °F 73.0 °F 78% 30.00 in 5.0 mi North 4.6 mph - N/A   Haze
11:55 AM 81.0 °F 86.2 °F 73.8 °F 79% 30.00 in 7.0 mi Calm Calm - N/A   Mostly Cloudy
12:15 PM 80.2 °F 84.7 °F 73.6 °F 80% 30.00 in 7.0 mi NE 4.6 mph - N/A   Overcast
12:35 PM 81.7 °F 87.3 °F 73.9 °F 77% 30.00 in 7.0 mi Calm Calm - N/A   Overcast
12:55 PM 81.5 °F 86.9 °F 73.8 °F 77% 29.99 in 7.0 mi Calm Calm - N/A   Overcast
1:15 PM 81.1 °F 86.4 °F 73.8 °F 78% 29.99 in 10.0 mi ENE 3.5 mph - N/A   Overcast
1:35 PM 79.7 °F - 73.4 °F 81% 29.99 in 10.0 mi Calm Calm - N/A   Overcast
1:55 PM 82.0 °F 87.9 °F 73.9 °F 76% 29.98 in 7.0 mi NE 3.5 mph - N/A   Mostly Cloudy
2:15 PM 81.7 °F 87.1 °F 73.4 °F 76% 29.98 in 10.0 mi Calm Calm - N/A   Mostly Cloudy
2:35 PM 82.2 °F 88.3 °F 73.9 °F 76% 29.98 in 10.0 mi Calm Calm - N/A   Overcast
2:55 PM 84.6 °F 90.7 °F 72.7 °F 67% 29.97 in 10.0 mi NE 4.6 mph - N/A   Mostly Cloudy
3:15 PM 79.3 °F - 72.9 °F 80% 29.97 in 7.0 mi NE 3.5 mph - N/A   Mostly Cloudy
3:35 PM 82.4 °F 87.9 °F 73.0 °F 73% 29.96 in 10.0 mi NE 5.8 mph - N/A   Scattered Clouds
3:55 PM 83.8 °F 90.4 °F 73.4 °F 71% 29.96 in 10.0 mi NE 4.6 mph - N/A   Clear
4:15 PM 83.8 °F 90.1 °F 73.0 °F 70% 29.95 in 10.0 mi NNE 3.5 mph - N/A   Scattered Clouds
4:35 PM 83.8 °F 90.1 °F 73.2 °F 70% 29.94 in 10.0 mi ENE 3.5 mph - N/A   Scattered Clouds
4:55 PM 83.3 °F 89.6 °F 73.6 °F 72% 29.94 in 10.0 mi Calm Calm - N/A   Scattered Clouds
5:15 PM 82.9 °F 89.1 °F 73.4 °F 73% 29.94 in 10.0 mi Calm Calm - N/A   Scattered Clouds
5:35 PM 83.1 °F 88.9 °F 73.0 °F 71% 29.94 in 10.0 mi East 3.5 mph - N/A   Scattered Clouds
5:55 PM 82.2 °F 87.3 °F 72.3 °F 72% 29.94 in 10.0 mi NE 3.5 mph - N/A   Scattered Clouds
6:15 PM 82.6 °F 87.8 °F 72.5 °F 71% 29.94 in 10.0 mi East 3.5 mph - N/A   Clear
6:35 PM 81.9 °F 87.0 °F 72.7 °F 74% 29.93 in 10.0 mi ENE 3.5 mph - N/A   Clear
6:55 PM 81.1 °F 85.8 °F 72.5 °F 75% 29.94 in 10.0 mi East 4.6 mph - N/A   Scattered Clouds
7:15 PM 80.6 °F 85.0 °F 72.7 °F 77% 29.94 in 7.0 mi ENE 3.5 mph - N/A   Scattered Clouds
7:35 PM 79.7 °F - 72.5 °F 79% 29.94 in 7.0 mi ENE 5.8 mph - N/A   Scattered Clouds
7:55 PM 78.8 °F - 72.1 °F 80% 29.95 in 7.0 mi Calm Calm - N/A   Clear
8:15 PM 77.9 °F - 72.1 °F 82% 29.95 in 10.0 mi ENE 3.5 mph - N/A   Scattered Clouds
8:35 PM 76.6 °F - 72.5 °F 87% 29.97 in 5.0 mi ENE 3.5 mph - 0.01 in Rain Rain
8:55 PM 75.2 °F - 73.0 °F 93% 29.98 in 4.0 mi Calm Calm - 0.03 in Rain Rain
9:15 PM 74.5 °F - 73.4 °F 96% 29.98 in 4.0 mi Calm Calm - 0.01 in Rain Light Rain
9:35 PM 74.1 °F - 73.0 °F 96% 29.99 in 4.0 mi Calm Calm - 0.01 in Rain Light Rain
9:55 PM 73.6 °F - 72.7 °F 97% 29.99 in 4.0 mi Calm Calm - 0.01 in   Mostly Cloudy
10:15 PM 73.6 °F - 72.7 °F 97% 29.99 in 4.0 mi Calm Calm - N/A   Scattered Clouds
10:35 PM 73.4 °F - 72.5 °F 97% 30.00 in 4.0 mi Calm Calm - N/A   Clear
10:55 PM 73.0 °F - 72.5 °F 98% 30.00 in 4.0 mi Calm Calm - N/A   Scattered Clouds
11:15 PM 72.7 °F - 72.1 °F 98% 30.01 in 5.0 mi Calm Calm - N/A   Scattered Clouds
11:35 PM 72.5 °F - 71.8 °F 98% 30.02 in 4.0 mi Calm Calm - N/A   Mostly Cloudy
11:55 PM 72.5 °F - 72.1 °F 99% 30.02 in 3.0 mi Calm Calm - 0.01 in   Overcast